Weather reports worldwide

Advertisment
Gourette, France (7775): temperature & dewpoint: 19.06.2018 04:00:00 - 25.06.2018 04:00:00 (CEST)Gourette, France (7775): wind speed & gusts: 19.06.2018 04:00:00 - 25.06.2018 04:00:00 (CEST)Gourette, France (7775): wind direction: 19.06.2018 04:00:00 - 25.06.2018 04:00:00 (CEST)Gourette, France (7775): reduced air pressure: 19.06.2018 04:00:00 - 25.06.2018 04:00:00 (CEST)Gourette, France (7775): visibility: 19.06.2018 04:00:00 - 25.06.2018 04:00:00 (CEST)Gourette, France (7775): precipitation: 19.06.2018 04:00:00 - 25.06.2018 04:00:00 (CEST)
Date & Time tt [°C] td [°C] ff [km/h] ff [kn] fx [km/h] fx [kn] dd ppp [hPa] vv [km] rr [mm]
25.06.2018 04:00:00 21,1 15,0 10 6 13 7 NW 1014,0 - 0,0
25.06.2018 03:00:00 21,4 12,8 9 5 10 5 NW 1014,3 - 0,0
25.06.2018 02:00:00 20,6 12,0 7 4 11 6 SW 1014,6 - 0,0
25.06.2018 01:00:00 20,0 11,7 8 4 12 7 SW 1014,9 - 0,0
25.06.2018 00:00:00 19,3 11,8 8 4 19 11 NW 1015,1 - 0,0
24.06.2018 23:00:00 20,5 12,7 15 8 22 12 NNW 1015,1 - 0,0
24.06.2018 22:00:00 20,9 12,1 7 4 10 6 NNW 1014,9 - 0,0
24.06.2018 21:00:00 20,1 16,7 5 3 8 4 SW 1014,7 - 0,0
24.06.2018 20:00:00 21,7 18,7 7 4 14 8 SSW 1015,0 30 0,0
24.06.2018 19:00:00 20,8 16,2 6 4 13 7 NW 1015,0 - 0,0
24.06.2018 18:00:00 21,6 18,4 4 2 23 13 WSW 1015,3 - 0,0
24.06.2018 17:00:00 20,4 17,0 6 4 35 19 NE 1015,2 30 1,4
24.06.2018 16:00:00 21,7 18,7 19 10 27 15 SSW 1015,9 30 0,4
24.06.2018 15:00:00 23,2 17,0 8 4 22 12 SE 1016,2 - 0,0
24.06.2018 14:00:00 25,3 17,0 13 7 23 13 ESE 1016,1 - 0,0
24.06.2018 13:00:00 25,9 17,3 13 7 22 12 E 1016,7 - 0,0
24.06.2018 12:00:00 25,1 17,0 12 7 25 13 E 1016,9 - 0,0
24.06.2018 11:00:00 25,6 18,0 18 10 27 14 E 1016,7 - 0,0
24.06.2018 10:00:00 25,3 18,5 8 5 18 10 ENE 1016,6 - 0,0
24.06.2018 09:00:00 25,5 18,2 9 5 16 9 NE 1016,5 - 0,0
24.06.2018 08:00:00 23,0 17,2 7 4 16 9 N 1016,4 20 0,0
24.06.2018 07:00:00 21,1 15,2 14 8 19 11 NNW 1016,3 - 0,0
24.06.2018 06:00:00 20,7 13,6 14 7 18 10 NNW 1016,2 - 0,0
24.06.2018 05:00:00 21,6 12,4 14 7 16 8 NW 1016,1 - 0,0
24.06.2018 04:00:00 21,4 12,0 11 6 16 9 NNW 1016,2 - 0,0
24.06.2018 03:00:00 21,3 11,9 14 8 18 10 NNW 1016,3 - 0,0
24.06.2018 02:00:00 20,9 13,3 15 8 18 10 NNW 1016,7 - 0,0
24.06.2018 01:00:00 21,7 13,1 12 6 19 10 NW 1016,9 - 0,0
24.06.2018 00:00:00 21,7 13,8 15 8 16 9 NW 1016,9 - 0,0
23.06.2018 23:00:00 21,7 13,8 14 7 16 9 NW 1016,7 - 0,0
23.06.2018 22:00:00 22,1 14,2 14 8 16 9 NW 1016,3 - 0,0
23.06.2018 21:00:00 22,3 14,9 6 3 14 8 NW 1015,8 - 0,0
23.06.2018 20:00:00 24,5 15,4 11 6 23 12 NNE 1015,6 - 0,0
23.06.2018 19:00:00 26,1 15,2 16 8 27 15 NE 1015,4 - 0,0
23.06.2018 18:00:00 27,9 14,2 15 8 29 16 NNE 1015,5 - 0,0
23.06.2018 17:00:00 28,7 14,5 24 13 42 23 NNE 1015,7 - 0,0
23.06.2018 16:00:00 28,9 15,1 31 17 46 25 NNE 1015,7 - 0,0
23.06.2018 15:00:00 28,4 15,7 29 16 41 22 NNE 1016,0 - 0,0
23.06.2018 14:00:00 29,0 16,2 27 14 40 22 NNE 1016,3 - 0,0
23.06.2018 13:00:00 28,4 16,7 27 15 43 23 NNE 1016,8 - 0,0
23.06.2018 12:00:00 27,5 17,4 27 15 44 24 NE 1016,6 - 0,0
23.06.2018 11:00:00 27,7 17,8 34 18 43 23 NNE 1016,3 - 0,0
23.06.2018 10:00:00 26,8 17,6 19 10 32 17 NE 1016,3 - 0,0
23.06.2018 09:00:00 26,1 19,0 23 13 32 17 NNE 1016,2 - 0,0
23.06.2018 08:00:00 22,8 18,6 21 11 29 15 NNE 1015,9 - 0,0
23.06.2018 07:00:00 22,3 19,7 20 11 29 16 NE 1015,5 - 0,0
23.06.2018 06:00:00 22,3 20,4 18 10 29 16 NE 1015,1 - 0,2
23.06.2018 05:00:00 22,6 19,4 11 6 27 15 N 1014,7 - 0,0
23.06.2018 04:00:00 22,0 18,0 18 10 27 15 N 1014,4 - 0,0
23.06.2018 03:00:00 22,4 19,4 16 9 27 14 NNW 1014,3 - 0,0
23.06.2018 02:00:00 22,6 20,1 18 10 33 18 N 1014,1 - 0,0
23.06.2018 01:00:00 22,9 20,4 22 12 31 17 NNE 1013,5 - 0,0
23.06.2018 00:00:00 23,0 19,4 24 13 37 20 N 1013,1 - 0,0
22.06.2018 23:00:00 23,3 18,8 28 15 42 23 N 1012,6 - -
22.06.2018 22:00:00 23,4 18,9 25 13 43 23 N 1011,8 - 0,0
22.06.2018 21:00:00 23,9 18,8 22 12 45 24 N 1011,1 - 0,0
22.06.2018 20:00:00 24,4 20,5 26 14 46 25 N 1010,8 20 -
22.06.2018 19:00:00 26,4 21,2 31 17 52 28 N 1010,0 - 0,0
22.06.2018 18:00:00 27,4 20,5 37 20 53 28 NNE 1009,8 - 0,0
22.06.2018 17:00:00 29,2 21,9 36 20 48 26 NNE 1009,8 - 0,0
22.06.2018 16:00:00 29,8 21,2 31 17 43 23 NNE 1010,0 - 0,0
22.06.2018 15:00:00 30,5 21,6 25 14 35 19 NNE 1010,3 - 0,0
22.06.2018 14:00:00 27,8 21,3 13 7 23 13 E 1010,9 - 0,0
22.06.2018 13:00:00 28,3 19,8 13 7 18 10 ENE 1011,4 - 0,0
22.06.2018 12:00:00 28,1 19,3 8 5 20 11 ENE 1011,8 - 0,0
22.06.2018 11:00:00 26,6 20,0 11 6 18 10 ESE 1011,7 15 -
22.06.2018 10:00:00 27,0 18,6 5 3 11 6 ESE 1011,9 - 0,0
22.06.2018 09:00:00 25,6 20,4 5 3 13 7 ESE 1012,4 - 0,0
22.06.2018 08:00:00 23,0 19,2 5 3 9 5 N 1012,5 20 -
22.06.2018 07:00:00 22,1 19,1 6 3 9 5 SE 1012,4 - 0,0
22.06.2018 06:00:00 21,2 16,8 6 4 8 5 SSW 1012,4 - 0,0
22.06.2018 05:00:00 21,1 15,9 6 3 7 4 SSW 1012,8 - 0,0
22.06.2018 04:00:00 21,9 20,0 0 0 8 4 N 1013,4 - 0,0
22.06.2018 03:00:00 22,1 21,3 2 1 4 2 W 1014,1 - 0,0
22.06.2018 02:00:00 22,3 20,9 2 1 5 3 W 1014,2 - 0,0
22.06.2018 01:00:00 22,0 19,7 4 2 9 5 SW 1014,7 - 0,0
22.06.2018 00:00:00 22,2 19,9 6 4 8 4 S 1014,8 - 0,0
21.06.2018 23:00:00 22,7 20,2 4 2 8 4 SSW 1014,9 - 0,0
21.06.2018 22:00:00 22,9 20,4 5 3 9 5 SW 1015,0 - 0,0
21.06.2018 21:00:00 23,8 20,5 5 3 13 7 SSE 1014,6 - 0,0
21.06.2018 20:00:00 25,2 20,5 10 5 16 9 SE 1014,6 - 0,0
21.06.2018 19:00:00 26,2 20,1 9 5 21 11 SSE 1014,4 - 0,0
21.06.2018 18:00:00 26,5 20,1 11 6 26 14 SSE 1014,7 - 0,0
21.06.2018 17:00:00 27,2 19,5 15 8 26 14 SE 1015,1 - -
21.06.2018 16:00:00 27,6 17,7 15 8 24 13 SSE 1015,3 - 0,0
21.06.2018 15:00:00 27,6 19,1 14 8 24 13 SSE 1015,8 - 0,0
21.06.2018 14:00:00 26,8 20,2 15 8 24 13 SE 1016,3 - -
21.06.2018 13:00:00 27,2 17,9 11 6 21 11 SSE 1016,8 - 0,0
21.06.2018 12:00:00 27,2 18,2 11 6 21 11 E 1017,0 - 0,0
21.06.2018 11:00:00 28,6 17,2 9 5 16 9 E 1016,9 - -
21.06.2018 10:00:00 29,0 16,5 6 3 12 6 E 1016,8 - 0,0
21.06.2018 09:00:00 27,0 15,1 3 1 7 4 SSE 1017,0 - 0,0
21.06.2018 08:00:00 23,3 16,6 2 1 8 4 SSE 1017,1 - 0,0
21.06.2018 07:00:00 21,6 15,7 5 3 12 6 SSW 1017,1 - 0,0
21.06.2018 06:00:00 21,5 14,9 9 5 10 5 SW 1017,2 - 0,0
21.06.2018 05:00:00 22,5 14,6 0 0 4 2 N 1017,2 - 0,0
21.06.2018 04:00:00 22,6 14,2 3 2 5 3 NE 1017,4 - 0,0
21.06.2018 03:00:00 23,2 14,5 2 1 7 4 SW 1017,4 - 0,0
21.06.2018 02:00:00 22,4 14,5 5 3 7 4 SW 1017,7 - 0,0
21.06.2018 01:00:00 22,2 14,8 5 3 9 5 WSW 1018,0 - 0,0
21.06.2018 00:00:00 22,9 15,0 6 3 11 6 NW 1018,3 - 0,0
20.06.2018 23:00:00 22,8 15,9 8 5 11 6 N 1018,4 - 0,0
20.06.2018 22:00:00 23,0 17,2 5 3 8 4 NNW 1018,1 - 0,0
20.06.2018 21:00:00 23,7 17,0 4 2 5 3 E 1017,7 - 0,0
20.06.2018 20:00:00 25,7 17,9 2 1 8 4 SE 1017,5 - -
20.06.2018 19:00:00 26,9 17,4 8 4 18 10 ENE 1017,5 - 0,0
20.06.2018 18:00:00 29,0 16,5 13 7 24 13 NE 1017,2 - 0,0
20.06.2018 17:00:00 28,8 16,7 18 10 28 15 NE 1017,4 - -
20.06.2018 16:00:00 29,0 16,2 21 11 31 17 NE 1017,8 - 0,0
20.06.2018 15:00:00 29,0 15,2 22 12 36 20 NE 1018,2 - 0,0
20.06.2018 14:00:00 29,6 16,1 26 14 37 20 NE 1018,4 - 0,0
20.06.2018 13:00:00 30,1 17,5 24 13 39 21 NE 1018,6 - 0,0
20.06.2018 12:00:00 30,1 15,4 28 15 37 20 NE 1018,5 - 0,0
20.06.2018 11:00:00 29,6 15,3 22 12 36 19 NNE 1018,5 25 0,0
20.06.2018 10:00:00 - - - - - - - - - -
20.06.2018 09:00:00 27,5 15,2 26 14 40 22 NNE 1018,5 - 0,0
20.06.2018 08:00:00 25,1 13,6 22 12 34 19 N 1018,2 25 0,0
20.06.2018 07:00:00 23,6 11,6 18 10 35 19 N 1017,8 - 0,0
20.06.2018 06:00:00 23,2 11,3 23 12 32 17 N 1017,7 - 0,0
20.06.2018 05:00:00 24,2 11,2 14 8 25 13 NW 1017,7 - 0,0
20.06.2018 04:00:00 23,3 12,0 16 9 28 15 NNW 1017,9 - 0,0
20.06.2018 03:00:00 23,6 11,9 19 10 27 15 N 1018,0 - 0,0
20.06.2018 02:00:00 24,5 11,8 18 10 28 15 NNW 1018,0 - -
20.06.2018 01:00:00 24,1 12,1 14 8 28 15 N 1018,1 - 0,0
20.06.2018 00:00:00 25,2 11,4 21 11 29 16 NNW 1017,9 - 0,0
19.06.2018 23:00:00 25,6 11,7 18 10 24 13 NNW 1017,8 - -
19.06.2018 22:00:00 24,8 13,4 16 9 24 13 NNW 1017,4 - 0,0
19.06.2018 21:00:00 25,2 15,2 18 10 32 17 N 1016,8 - 0,0
19.06.2018 20:00:00 29,5 14,9 15 8 28 15 N 1016,5 - -
19.06.2018 19:00:00 30,7 14,8 16 9 29 16 N 1016,4 - 0,0
19.06.2018 18:00:00 30,7 14,3 21 11 31 17 N 1016,6 - 0,0
19.06.2018 17:00:00 32,1 16,0 21 11 29 16 NNE 1017,0 - -
19.06.2018 16:00:00 32,7 16,1 18 10 28 15 NNE 1017,3 - 0,0
19.06.2018 15:00:00 33,0 12,6 18 10 28 15 N 1017,7 - 0,0
19.06.2018 14:00:00 31,9 15,4 21 12 32 18 NNE 1017,9 25 0,0
19.06.2018 13:00:00 30,6 18,0 26 14 39 21 NNE 1018,4 - 0,0
19.06.2018 12:00:00 30,7 18,8 24 13 41 22 NNE 1018,3 - 0,0
19.06.2018 11:00:00 30,5 14,2 26 14 39 21 NNE 1018,2 - -
19.06.2018 10:00:00 28,9 14,7 24 13 37 20 N 1018,3 - 0,0
19.06.2018 09:00:00 27,3 15,3 23 12 35 19 N 1018,1 - 0,0
19.06.2018 08:00:00 25,7 14,8 11 6 24 13 NNW 1017,8 - -
19.06.2018 07:00:00 24,2 13,1 16 9 24 13 NW 1017,5 - 0,0
19.06.2018 06:00:00 23,8 12,7 18 10 26 14 NW 1017,2 - 0,0
19.06.2018 05:00:00 23,4 13,0 22 12 31 17 NNW 1017,0 20 -
19.06.2018 04:00:00 23,0 12,0 21 11 31 17 NNW 1016,7 - 0,0

tt = temperature
td = dewpoint
ff = wind speed
fx = gusts
dd = wind direction
ppp = reduced air pressure
vv = visibility
rr = precipitation

Next stations